Flag for Germany Weather past 2 weeks in Uelzen, Lower Saxony, Germany

Now
54 °F

Passing clouds.


Feels Like: 51 °F
Forecast: 51 / 65 °F
Wind: 8 mph from Southwest

Location: Fassberg

Current Time: Aug 22, 2014 at 6:07:36 AM

Latest Report: Aug 22, 2014 at 5:20 AM


Visibility: N/A

Pressure: 29.89 "Hg

Humidity: 77%

Dew point: 46 °F

Location of UelzenLocation

Historic Weather in Uelzen — Graph

°F

Uelzen temperature yesterday

Maximum temperature yesterday: 64 °F (at 3:20 PM)
Minimum temperature yesterday: 43 °F (at 1:20 AM)
Average temperature yesterday: 54 °F

Past Weeks' High & Low Weather Summary

 TemperatureHumidityPressure
High77 °F (Aug 8, 3:20 PM)100% (Aug 8, 1:20 AM)30.01 "Hg (Aug 8, 1:20 AM)
Low43 °F (Aug 21, 1:20 AM)40% (Aug 11, 7:20 PM)29.56 "Hg (Aug 18, 9:20 AM)
Average60 °F76%29.83 "Hg
* Reported Aug 7 4:20 AM — Aug 22 4:20 AM, Uelzen, Weather by CustomWeather, © 2014

Note: Actual official high and low records may vary slightly from our data, if they occured in-between our weather recording intervals... More about our weather records

Advertising

Uelzen weather history for previous 24 hours

 ConditionsComfort  
Time TempWeatherWind HumidityBarometerVisibility
4:20 AM
Aug 22
54 °FPassing clouds.6 mph77%29.92 "HgN/A
3:20 AM52 °FPassing clouds.6 mph82%29.92 "HgN/A
2:20 AM50 °FFog.5 mph88%29.92 "HgN/A
1:20 AM50 °FFog.2 mph88%29.95 "HgN/A
12:20 AM54 °FPassing clouds.2 mph77%29.95 "HgN/A
11:20 PM
Aug 21
54 °FPassing clouds.2 mph77%29.95 "HgN/A
10:20 PM52 °FPartly cloudy.1 mph82%29.95 "HgN/A
9:20 PM52 °FPartly sunny.1 mph82%29.95 "HgN/A
8:20 PM59 °FBroken clouds.3 mph59%29.95 "HgN/A
7:20 PM63 °FScattered clouds.10 mph49%29.95 "HgN/A
6:20 PM63 °FScattered clouds.10 mph52%29.95 "HgN/A
5:20 PM64 °FScattered clouds.14 mph49%29.95 "HgN/A
5:00 PM64 °FScattered clouds.12 mph49%29.98 "HgN/A
4:20 PM63 °FScattered clouds.9 mph52%29.98 "HgN/A
3:20 PM64 °FPassing clouds.14 mph49%29.98 "HgN/A
2:20 PM61 °FScattered clouds.14 mph59%29.98 "HgN/A
1:20 PM61 °FScattered clouds.10 mph59%29.98 "HgN/A
12:20 PM59 °FScattered clouds.10 mph63%29.98 "HgN/A
11:20 AM59 °FScattered clouds.10 mph68%30.01 "HgN/A
10:20 AM54 °FPartly sunny.8 mph82%30.01 "Hg5 mi
9:50 AM54 °FPartly sunny.8 mph88%30.01 "Hg4 mi
9:20 AM52 °FFog.7 mph94%30.01 "Hg3 mi
8:20 AM50 °FFog.7 mph94%29.98 "Hg2 mi
7:20 AM46 °FFog.5 mph100%29.98 "Hg1 mi
6:20 AM43 °FPassing clouds.2 mph100%29.98 "Hg1 mi
Weather by CustomWeather, © 2014

See weather overviewHow to use our weather pages